| time (UTC) | temp C | wind direction | speed KPH | gust KPH | rain 1hr cm | rain 24hr cm | rain mn cm | humidity % | barometer mb |
| 20260510224026 | 17 | 236 | 9.7 | 16.1 | 0.00 | 0.00 | 0.00 | 67 | 1020.6 |
| 20260510223531 | 17 | 215 | 8.0 | 17.7 | 0.00 | 0.00 | 0.00 | 64 | 1020.6 |
| 20260510223040 | 17 | 291 | 1.6 | 17.7 | 0.00 | 0.00 | 0.00 | 64 | 1020.6 |
| 20260510222526 | 17 | 268 | 8.0 | 17.7 | 0.00 | 0.00 | 0.00 | 66 | 1020.6 |
| 20260510222027 | 17 | 286 | 6.4 | 17.7 | 0.00 | 0.00 | 0.00 | 66 | 1020.7 |
| 20260510221538 | 17 | 247 | 9.7 | 17.7 | 0.00 | 0.00 | 0.00 | 65 | 1020.6 |
| 20260510221026 | 17 | 255 | 8.0 | 17.7 | 0.00 | 0.00 | 0.00 | 67 | 1020.6 |
| 20260510220527 | 16 | 348 | 3.2 | 11.3 | 0.00 | 0.00 | 0.00 | 71 | 1020.7 |
| 20260510220044 | 16 | 159 | 4.8 | 17.7 | 0.00 | 0.00 | 0.00 | 73 | 1020.6 |
| 20260510215525 | 16 | 221 | 6.4 | 19.3 | 0.00 | 0.00 | 0.00 | 71 | 1020.5 |
| 20260510215025 | 16 | 223 | 6.4 | 19.3 | 0.00 | 0.00 | 0.00 | 70 | 1020.6 |
| 20260510214543 | 16 | 222 | 9.7 | 16.1 | 0.00 | 0.00 | 0.00 | 71 | 1020.5 |
| 20260510214027 | 17 | 190 | 6.4 | 14.5 | 0.00 | 0.00 | 0.00 | 70 | 1020.5 |
| 20260510213528 | 17 | 202 | 4.8 | 17.7 | 0.00 | 0.00 | 0.00 | 72 | 1020.5 |
| 20260510213042 | 17 | 207 | 9.7 | 19.3 | 0.00 | 0.00 | 0.00 | 69 | 1020.5 |
| 20260510212527 | 17 | 261 | 8.0 | 19.3 | 0.00 | 0.00 | 0.00 | 70 | 1020.3 |
| 20260510212028 | 17 | 206 | 9.7 | 17.7 | 0.00 | 0.00 | 0.00 | 73 | 1020.4 |
| 20260510211541 | 16 | 223 | 9.7 | 17.7 | 0.00 | 0.00 | 0.00 | 71 | 1020.5 |
| 20260510211029 | 16 | 253 | 6.4 | 17.7 | 0.00 | 0.00 | 0.00 | 70 | 1020.5 |
| 20260510210526 | 16 | 235 | 8.0 | 19.3 | 0.00 | 0.00 | 0.00 | 68 | 1020.5 |
| 20260510210040 | 16 | 242 | 8.0 | 20.9 | 0.00 | 0.00 | 0.00 | 68 | 1020.4 |
| 20260510205526 | 16 | 271 | 11.3 | 20.9 | 0.00 | 0.00 | 0.00 | 68 | 1020.4 |
| 20260510205028 | 17 | 227 | 11.3 | 20.9 | 0.00 | 0.00 | 0.00 | 68 | 1020.3 |
| 20260510204545 | 17 | 226 | 6.4 | 20.9 | 0.00 | 0.00 | 0.00 | 67 | 1020.3 |
| 20260510204027 | 17 | 241 | 8.0 | 20.9 | 0.00 | 0.00 | 0.00 | 66 | 1020.3 |
| 20260510203526 | 17 | 273 | 8.0 | 19.3 | 0.00 | 0.00 | 0.00 | 67 | 1020.4 |
| 20260510203042 | 16 | 242 | 6.4 | 20.9 | 0.00 | 0.00 | 0.00 | 65 | 1020.3 |
| 20260510202528 | 16 | 291 | 12.9 | 20.9 | 0.00 | 0.00 | 0.00 | 65 | 1020.2 |
| 20260510202026 | 17 | 217 | 11.3 | 20.9 | 0.00 | 0.00 | 0.00 | 67 | 1020.1 |
| 20260510201543 | 17 | 221 | 6.4 | 25.7 | 0.00 | 0.00 | 0.00 | 67 | 1020.1 |
| 20260510201025 | 17 | 252 | 9.7 | 25.7 | 0.00 | 0.00 | 0.00 | 65 | 1020.1 |
| 20260510200526 | 17 | 326 | 12.9 | 25.7 | 0.00 | 0.00 | 0.00 | 64 | 1019.9 |
| 20260510200041 | 17 | 221 | 4.8 | 19.3 | 0.00 | 0.00 | 0.00 | 65 | 1019.8 |
| 20260510195526 | 17 | 198 | 8.0 | 19.3 | 0.00 | 0.00 | 0.00 | 63 | 1019.8 |
| 20260510195025 | 17 | 208 | 9.7 | 19.3 | 0.00 | 0.00 | 0.00 | 65 | 1019.7 |
| 20260510194542 | 17 | 207 | 3.2 | 14.5 | 0.00 | 0.00 | 0.00 | 64 | 1019.8 |
| 20260510194027 | 17 | 242 | 6.4 | 14.5 | 0.00 | 0.00 | 0.00 | 65 | 1019.7 |
| 20260510193527 | 17 | 257 | 6.4 | 12.9 | 0.00 | 0.00 | 0.00 | 68 | 1019.8 |
| 20260510193041 | 17 | 174 | 9.7 | 14.5 | 0.00 | 0.00 | 0.00 | 68 | 1019.8 |
| 20260510192525 | 17 | 284 | 8.0 | 17.7 | 0.00 | 0.00 | 0.00 | 68 | 1019.9 |
| 20260510192026 | 16 | 246 | 8.0 | 20.9 | 0.00 | 0.00 | 0.00 | 69 | 1019.8 |
| 20260510191543 | 17 | 209 | 9.7 | 20.9 | 0.00 | 0.00 | 0.00 | 68 | 1019.7 |
| 20260510191026 | 17 | 299 | 6.4 | 14.5 | 0.00 | 0.00 | 0.00 | 71 | 1019.7 |
| 20260510190526 | 17 | 196 | 8.0 | 14.5 | 0.00 | 0.00 | 0.00 | 70 | 1019.7 |
| 20260510190047 | 16 | 302 | 3.2 | 19.3 | 0.00 | 0.00 | 0.00 | 74 | 1019.7 |
| 20260510185526 | 16 | 326 | 6.4 | 19.3 | 0.00 | 0.00 | 0.00 | 72 | 1019.7 |
| 20260510185026 | 16 | 240 | 11.3 | 19.3 | 0.00 | 0.00 | 0.00 | 71 | 1019.6 |
| 20260510184542 | 16 | 118 | 3.2 | 12.9 | 0.00 | 0.00 | 0.00 | 74 | 1019.7 |
| 20260510184026 | 15 | 263 | 4.8 | 17.7 | 0.00 | 0.00 | 0.00 | 75 | 1019.8 |
| 20260510183530 | 15 | 337 | 4.8 | 20.9 | 0.00 | 0.00 | 0.00 | 73 | 1019.8 |
| 20260510183043 | 15 | 288 | 8.0 | 20.9 | 0.00 | 0.00 | 0.00 | 73 | 1019.8 |
| 20260510182525 | 15 | 133 | 8.0 | 20.9 | 0.00 | 0.00 | 0.00 | 74 | 1019.8 |
| 20260510182025 | 15 | 209 | 9.7 | 17.7 | 0.00 | 0.00 | 0.00 | 73 | 1019.8 |
| 20260510181541 | 15 | 236 | 6.4 | 17.7 | 0.00 | 0.00 | 0.00 | 73 | 1019.6 |
| 20260510181026 | 15 | 273 | 8.0 | 17.7 | 0.00 | 0.00 | 0.00 | 74 | 1019.6 |
| 20260510180525 | 15 | 250 | 8.0 | 17.7 | 0.00 | 0.00 | 0.00 | 74 | 1019.7 |
| 20260510180040 | 15 | 244 | 8.0 | 17.7 | 0.00 | 0.00 | 0.00 | 74 | 1019.7 |
| 20260510175528 | 15 | 233 | 8.0 | 20.9 | 0.00 | 0.00 | 0.00 | 74 | 1019.6 |
| 20260510175026 | 15 | 220 | 6.4 | 24.1 | 0.00 | 0.00 | 0.00 | 76 | 1019.7 |
| 20260510174544 | 14 | 220 | 11.3 | 24.1 | 0.00 | 0.00 | 0.00 | 76 | 1019.8 |
| 20260510174028 | 14 | 205 | 11.3 | 24.1 | 0.00 | 0.00 | 0.00 | 75 | 1019.7 |
| 20260510173525 | 14 | 236 | 9.7 | 20.9 | 0.00 | 0.00 | 0.00 | 75 | 1019.6 |
| 20260510173044 | 14 | 196 | 8.0 | 16.1 | 0.00 | 0.00 | 0.00 | 76 | 1019.7 |
| 20260510172526 | 14 | 209 | 8.0 | 17.7 | 0.00 | 0.00 | 0.00 | 76 | 1019.5 |
| 20260510172026 | 14 | 243 | 8.0 | 17.7 | 0.00 | 0.00 | 0.00 | 76 | 1019.5 |
| 20260510171540 | 14 | 216 | 6.4 | 9.7 | 0.00 | 0.00 | 0.00 | 78 | 1019.4 |
| 20260510171025 | 14 | 223 | 4.8 | 12.9 | 0.00 | 0.00 | 0.00 | 78 | 1019.0 |
| 20260510170525 | 14 | 213 | 6.4 | 14.5 | 0.00 | 0.00 | 0.00 | 77 | 1018.9 |
| 20260510170044 | 14 | 185 | 6.4 | 14.5 | 0.00 | 0.00 | 0.00 | 78 | 1019.2 |
| 20260510165525 | 13 | 251 | 6.4 | 19.3 | 0.00 | 0.00 | 0.00 | 78 | 1019.2 |
| 20260510165026 | 13 | 268 | 6.4 | 19.3 | 0.00 | 0.00 | 0.00 | 78 | 1019.3 |
| 20260510164544 | 13 | 284 | 8.0 | 20.9 | 0.00 | 0.00 | 0.00 | 77 | 1019.5 |
| 20260510164025 | 13 | 241 | 6.4 | 20.9 | 0.00 | 0.00 | 0.00 | 78 | 1018.9 |
| 20260510163529 | 13 | 211 | 4.8 | 16.1 | 0.00 | 0.00 | 0.00 | 79 | 1019.2 |
| 20260510163048 | 13 | 157 | 6.4 | 16.1 | 0.00 | 0.00 | 0.00 | 80 | 1019.2 |
| 20260510162526 | 13 | 150 | 4.8 | 14.5 | 0.00 | 0.00 | 0.00 | 80 | 1019.2 |
| 20260510162026 | 13 | 209 | 6.4 | 14.5 | 0.00 | 0.00 | 0.00 | 80 | 1019.1 |
| 20260510161541 | 13 | 181 | 6.4 | 14.5 | 0.00 | 0.00 | 0.00 | 79 | 1019.2 |
| 20260510161026 | 13 | 252 | 4.8 | 14.5 | 0.00 | 0.00 | 0.00 | 83 | 1019.1 |
| 20260510160526 | 13 | 214 | 8.0 | 14.5 | 0.00 | 0.00 | 0.00 | 82 | 1019.1 |
| 20260510160042 | 13 | 216 | 4.8 | 12.9 | 0.00 | 0.00 | 0.00 | 84 | 1018.9 |
| 20260510155528 | 13 | 185 | 9.7 | 12.9 | 0.00 | 0.00 | 0.00 | 85 | 1018.8 |
| 20260510155025 | 12 | 227 | 4.8 | 11.3 | 0.00 | 0.00 | 0.00 | 86 | 1018.6 |
| 20260510154541 | 12 | 206 | 3.2 | 6.4 | 0.00 | 0.00 | 0.00 | 86 | 1018.4 |
| 20260510154026 | 12 | 213 | 1.6 | 6.4 | 0.00 | 0.00 | 0.00 | 87 | 1018.3 |
| 20260510153528 | 12 | 262 | 1.6 | 6.4 | 0.00 | 0.00 | 0.00 | 89 | 1018.5 |
| 20260510153040 | 12 | 273 | 1.6 | 6.4 | 0.00 | 0.00 | 0.00 | 91 | 1018.5 |
| 20260510152525 | 11 | 279 | 1.6 | 6.4 | 0.00 | 0.00 | 0.00 | 90 | 1018.5 |
| 20260510152026 | 11 | 262 | 0.0 | 1.6 | 0.00 | 0.00 | 0.00 | 91 | 1018.2 |
| 20260510151543 | 11 | 0 | 0.0 | 3.2 | 0.00 | 0.00 | 0.00 | 92 | 1017.9 |
| 20260510151025 | 11 | 209 | 0.0 | 3.2 | 0.00 | 0.00 | 0.00 | 92 | 1018.0 |
| 20260510150525 | 11 | 207 | 1.6 | 3.2 | 0.00 | 0.00 | 0.00 | 93 | 1018.2 |
| 20260510150042 | 11 | 0 | 0.0 | 3.2 | 0.00 | 0.00 | 0.00 | 94 | 1018.5 |
| 20260510145525 | 11 | 291 | 0.0 | 3.2 | 0.00 | 0.00 | 0.00 | 94 | 1018.5 |
| 20260510145027 | 10 | 49 | 0.0 | 3.2 | 0.00 | 0.00 | 0.00 | 95 | 1018.2 |
| 20260510144556 | 10 | 33 | 0.0 | 1.6 | 0.00 | 0.00 | 0.00 | 95 | 1018.3 |
| 20260510144026 | 10 | 280 | 0.0 | 1.6 | 0.00 | 0.00 | 0.00 | 95 | 1018.6 |
| 20260510143526 | 10 | 342 | 0.0 | 3.2 | 0.00 | 0.00 | 0.00 | 95 | 1018.6 |
| 20260510143044 | 10 | 342 | 1.6 | 3.2 | 0.00 | 0.00 | 0.00 | 95 | 1018.1 |
| 20260510142525 | 10 | 309 | 0.0 | 3.2 | 0.00 | 0.00 | 0.00 | 95 | 1018.2 |
| 20260510142026 | 10 | 309 | 0.0 | 3.2 | 0.00 | 0.00 | 0.00 | 94 | 1018.3 |
| 20260510141541 | 10 | 314 | 1.6 | 3.2 | 0.00 | 0.00 | 0.00 | 94 | 1018.2 |
| 20260510141028 | 10 | 11 | 0.0 | 1.6 | 0.00 | 0.00 | 0.00 | 95 | 1018.0 |
| 20260510140526 | 9 | 11 | 0.0 | 3.2 | 0.00 | 0.00 | 0.00 | 95 | 1017.9 |
| 20260510140040 | 8 | 351 | 0.0 | 3.2 | 0.00 | 0.00 | 0.00 | 95 | 1018.0 |
| 20260510135525 | 8 | 331 | 0.0 | 3.2 | 0.00 | 0.00 | 0.00 | 95 | 1018.2 |
| 20260510135025 | 8 | 9 | 0.0 | 1.6 | 0.00 | 0.00 | 0.00 | 95 | 1018.2 |
| 20260510134632 | 8 | 142 | 0.0 | 1.6 | 0.00 | 0.00 | 0.00 | 95 | 1018.3 |
| 20260510134025 | 8 | 109 | 0.0 | 1.6 | 0.00 | 0.00 | 0.00 | 95 | 1018.4 |
| 20260510133526 | 8 | 0 | 0.0 | 1.6 | 0.00 | 0.00 | 0.00 | 95 | 1018.4 |
| 20260510133039 | 8 | 317 | 0.0 | 3.2 | 0.00 | 0.00 | 0.00 | 95 | 1018.5 |
| 20260510132525 | 8 | 0 | 0.0 | 3.2 | 0.00 | 0.00 | 0.00 | 95 | 1018.3 |
| 20260510132025 | 8 | 309 | 1.6 | 4.8 | 0.00 | 0.00 | 0.00 | 95 | 1018.0 |
| 20260510131541 | 8 | 306 | 1.6 | 4.8 | 0.00 | 0.00 | 0.00 | 93 | 1017.8 |
| 20260510131025 | 8 | 298 | 3.2 | 4.8 | 0.00 | 0.00 | 0.00 | 93 | 1017.9 |
| 20260510130526 | 9 | 0 | 0.0 | 0.0 | 0.00 | 0.00 | 0.00 | 94 | 1017.8 |
| 20260510130041 | 9 | 0 | 0.0 | 4.8 | 0.00 | 0.00 | 0.00 | 94 | 1017.8 |
| 20260510125526 | 9 | 0 | 0.0 | 8.0 | 0.00 | 0.00 | 0.00 | 94 | 1017.9 |
| 20260510125028 | 9 | 163 | 1.6 | 8.0 | 0.00 | 0.00 | 0.00 | 94 | 1018.0 |
| 20260510124546 | 9 | 136 | 1.6 | 8.0 | 0.00 | 0.00 | 0.00 | 94 | 1018.0 |
| 20260510124025 | 9 | 153 | 3.2 | 8.0 | 0.00 | 0.00 | 0.00 | 94 | 1018.1 |
| 20260510123527 | 9 | 164 | 4.8 | 8.0 | 0.00 | 0.00 | 0.00 | 94 | 1018.1 |
| 20260510123040 | 9 | 169 | 4.8 | 11.3 | 0.00 | 0.00 | 0.00 | 94 | 1018.0 |
| 20260510122525 | 9 | 164 | 6.4 | 11.3 | 0.00 | 0.00 | 0.00 | 94 | 1018.1 |
| 20260510122025 | 9 | 169 | 4.8 | 11.3 | 0.00 | 0.00 | 0.00 | 95 | 1018.2 |
| 20260510121539 | 9 | 190 | 6.4 | 12.9 | 0.00 | 0.00 | 0.00 | 95 | 1018.3 |
| 20260510121025 | 9 | 178 | 6.4 | 12.9 | 0.00 | 0.00 | 0.00 | 95 | 1018.3 |
| 20260510120529 | 9 | 180 | 4.8 | 11.3 | 0.00 | 0.00 | 0.00 | 94 | 1018.3 |
| 20260510120041 | 9 | 160 | 6.4 | 11.3 | 0.00 | 0.00 | 0.00 | 95 | 1018.1 |
| 20260510115525 | 9 | 177 | 6.4 | 11.3 | 0.00 | 0.00 | 0.00 | 95 | 1018.2 |
| 20260510115027 | 9 | 175 | 4.8 | 11.3 | 0.00 | 0.00 | 0.00 | 95 | 1018.2 |
| 20260510114542 | 9 | 163 | 6.4 | 11.3 | 0.00 | 0.00 | 0.00 | 95 | 1018.1 |
| 20260510114025 | 9 | 162 | 6.4 | 11.3 | 0.00 | 0.00 | 0.00 | 95 | 1017.8 |
| 20260510113525 | 9 | 145 | 6.4 | 12.9 | 0.00 | 0.00 | 0.00 | 95 | 1017.8 |
| 20260510113041 | 9 | 196 | 4.8 | 12.9 | 0.00 | 0.00 | 0.00 | 95 | 1017.9 |
| 20260510112525 | 9 | 165 | 4.8 | 11.3 | 0.00 | 0.00 | 0.00 | 95 | 1017.9 |
| 20260510112026 | 9 | 183 | 4.8 | 8.0 | 0.00 | 0.00 | 0.00 | 95 | 1017.8 |
| 20260510111553 | 9 | 160 | 4.8 | 11.3 | 0.00 | 0.00 | 0.00 | 95 | 1017.8 |
| 20260510111026 | 9 | 137 | 4.8 | 11.3 | 0.00 | 0.00 | 0.00 | 95 | 1017.7 |
| 20260510110525 | 9 | 159 | 6.4 | 11.3 | 0.00 | 0.00 | 0.00 | 95 | 1017.7 |
| 20260510110040 | 9 | 182 | 6.4 | 9.7 | 0.00 | 0.00 | 0.00 | 95 | 1017.5 |
| 20260510105525 | 9 | 147 | 6.4 | 8.0 | 0.00 | 0.00 | 0.00 | 95 | 1017.4 |
| 20260510105025 | 9 | 148 | 4.8 | 11.3 | 0.00 | 0.00 | 0.00 | 95 | 1017.7 |
| 20260510104549 | 9 | 188 | 4.8 | 11.3 | 0.00 | 0.00 | 0.00 | 96 | 1017.9 |
| 20260510104025 | 8 | 155 | 3.2 | 9.7 | 0.00 | 0.00 | 0.00 | 95 | 1018.2 |
| 20260510103525 | 8 | 196 | 4.8 | 11.3 | 0.00 | 0.00 | 0.00 | 96 | 1017.9 |
| 20260510103045 | 8 | 161 | 4.8 | 11.3 | 0.00 | 0.00 | 0.00 | 96 | 1017.6 |
| 20260510102525 | 8 | 152 | 6.4 | 11.3 | 0.00 | 0.00 | 0.00 | 96 | 1017.6 |
| 20260510102026 | 8 | 148 | 3.2 | 6.4 | 0.00 | 0.00 | 0.00 | 96 | 1017.5 |
| 20260510101542 | 8 | 146 | 3.2 | 8.0 | 0.00 | 0.00 | 0.00 | 96 | 1017.4 |
| 20260510101024 | 8 | 158 | 1.6 | 8.0 | 0.00 | 0.00 | 0.00 | 96 | 1017.3 |
| 20260510100525 | 8 | 175 | 4.8 | 8.0 | 0.00 | 0.00 | 0.00 | 96 | 1017.2 |
| 20260510100041 | 8 | 164 | 3.2 | 6.4 | 0.00 | 0.00 | 0.00 | 95 | 1017.0 |
| 20260510095525 | 8 | 163 | 3.2 | 6.4 | 0.00 | 0.00 | 0.00 | 95 | 1017.0 |
| 20260510095024 | 9 | 118 | 3.2 | 6.4 | 0.00 | 0.00 | 0.00 | 95 | 1017.0 |
| 20260510094542 | 9 | 142 | 3.2 | 9.7 | 0.00 | 0.00 | 0.00 | 96 | 1017.2 |
| 20260510094024 | 9 | 148 | 4.8 | 9.7 | 0.00 | 0.00 | 0.00 | 96 | 1017.1 |
| 20260510093525 | 9 | 197 | 3.2 | 6.4 | 0.00 | 0.00 | 0.00 | 96 | 1017.2 |
| 20260510093040 | 9 | 131 | 3.2 | 6.4 | 0.00 | 0.00 | 0.00 | 97 | 1017.2 |
| 20260510092526 | 8 | 112 | 3.2 | 4.8 | 0.00 | 0.00 | 0.00 | 97 | 1017.2 |
| 20260510092026 | 8 | 125 | 3.2 | 4.8 | 0.00 | 0.00 | 0.00 | 97 | 1017.2 |
| 20260510091539 | 8 | 126 | 1.6 | 3.2 | 0.00 | 0.00 | 0.00 | 97 | 1017.3 |
| 20260510091025 | 8 | 140 | 0.0 | 3.2 | 0.00 | 0.00 | 0.00 | 97 | 1017.3 |
| 20260510090525 | 8 | 130 | 1.6 | 3.2 | 0.00 | 0.00 | 0.00 | 97 | 1017.2 |
| 20260510090039 | 8 | 128 | 0.0 | 3.2 | 0.00 | 0.00 | 0.00 | 97 | 1017.2 |
| 20260510085528 | 8 | 0 | 0.0 | 6.4 | 0.00 | 0.00 | 0.00 | 96 | 1017.3 |
| 20260510085022 | 8 | 112 | 3.2 | 6.4 | 0.00 | 0.00 | 0.00 | 97 | 1017.1 |
| 20260510084543 | 8 | 200 | 3.2 | 3.2 | 0.00 | 0.00 | 0.00 | 98 | 1017.1 |
| 20260510084023 | 8 | 161 | 0.0 | 3.2 | 0.00 | 0.00 | 0.00 | 98 | 1017.2 |
| 20260510083527 | 7 | 108 | 0.0 | 1.6 | 0.00 | 0.00 | 0.00 | 96 | 1017.1 |
| 20260510083041 | 7 | 0 | 0.0 | 3.2 | 0.00 | 0.00 | 0.00 | 96 | 1017.0 |
| 20260510082522 | 7 | 0 | 0.0 | 3.2 | 0.00 | 0.00 | 0.00 | 96 | 1017.0 |
| 20260510082022 | 7 | 108 | 1.6 | 1.6 | 0.00 | 0.00 | 0.00 | 96 | 1016.9 |
| 20260510081543 | 7 | 0 | 0.0 | 1.6 | 0.00 | 0.00 | 0.00 | 96 | 1016.9 |
| 20260510081022 | 7 | 134 | 0.0 | 1.6 | 0.00 | 0.00 | 0.00 | 95 | 1016.8 |
| 20260510080527 | 7 | 0 | 0.0 | 1.6 | 0.00 | 0.00 | 0.00 | 96 | 1016.9 |
| 20260510080042 | 7 | 0 | 0.0 | 1.6 | 0.00 | 0.00 | 0.00 | 96 | 1016.9 |
| 20260510075525 | 7 | 0 | 0.0 | 0.0 | 0.00 | 0.00 | 0.00 | 95 | 1016.8 |
| 20260510075023 | 8 | 0 | 0.0 | 1.6 | 0.00 | 0.00 | 0.00 | 95 | 1016.7 |
| 20260510074540 | 8 | 0 | 0.0 | 1.6 | 0.00 | 0.00 | 0.00 | 95 | 1016.7 |
| 20260510074024 | 8 | 134 | 1.6 | 3.2 | 0.00 | 0.00 | 0.00 | 96 | 1016.7 |
| 20260510073530 | 8 | 117 | 1.6 | 3.2 | 0.00 | 0.00 | 0.00 | 97 | 1016.7 |
| 20260510073044 | 8 | 109 | 0.0 | 1.6 | 0.00 | 0.00 | 0.00 | 95 | 1016.7 |
| 20260510072525 | 8 | 0 | 0.0 | 1.6 | 0.00 | 0.00 | 0.00 | 96 | 1016.7 |
| 20260510072024 | 8 | 109 | 0.0 | 0.0 | 0.00 | 0.00 | 0.00 | 96 | 1016.6 |
| 20260510071542 | 8 | 0 | 0.0 | 1.6 | 0.00 | 0.00 | 0.00 | 95 | 1016.6 |
| 20260510071024 | 8 | 0 | 0.0 | 1.6 | 0.00 | 0.00 | 0.00 | 95 | 1016.6 |
| 20260510070525 | 8 | 0 | 0.0 | 1.6 | 0.00 | 0.00 | 0.00 | 95 | 1016.6 |
| 20260510070044 | 8 | 0 | 0.0 | 1.6 | 0.00 | 0.00 | 0.00 | 95 | 1016.6 |
| 20260510065524 | 8 | 0 | 0.0 | 3.2 | 0.00 | 0.00 | 0.00 | 95 | 1016.5 |
| 20260510065023 | 8 | 0 | 0.0 | 3.2 | 0.00 | 0.00 | 0.00 | 95 | 1016.5 |
| 20260510064540 | 8 | 109 | 0.0 | 3.2 | 0.00 | 0.00 | 0.00 | 95 | 1016.5 |
| 20260510064023 | 8 | 0 | 0.0 | 1.6 | 0.00 | 0.00 | 0.00 | 95 | 1016.6 |
| 20260510063522 | 8 | 0 | 0.0 | 1.6 | 0.00 | 0.00 | 0.00 | 95 | 1016.6 |
| 20260510063041 | 8 | 19 | 0.0 | 0.0 | 0.00 | 0.00 | 0.00 | 95 | 1016.6 |
| 20260510062525 | 8 | 0 | 0.0 | 0.0 | 0.00 | 0.00 | 0.00 | 95 | 1016.6 |
| 20260510062025 | 8 | 19 | 0.0 | 0.0 | 0.00 | 0.00 | 0.00 | 94 | 1016.7 |
| 20260510061541 | 8 | 0 | 0.0 | 0.0 | 0.00 | 0.00 | 0.00 | 94 | 1016.6 |
| 20260510061025 | 8 | 0 | 0.0 | 0.0 | 0.00 | 0.00 | 0.00 | 93 | 1016.7 |
| 20260510060525 | 9 | 0 | 0.0 | 0.0 | 0.00 | 0.00 | 0.00 | 93 | 1016.7 |
| 20260510060047 | 9 | 0 | 0.0 | 0.0 | 0.00 | 0.00 | 0.00 | 93 | 1016.7 |
| 20260510055525 | 9 | 0 | 0.0 | 0.0 | 0.00 | 0.00 | 0.00 | 93 | 1016.7 |
| 20260510055024 | 10 | 0 | 0.0 | 0.0 | 0.00 | 0.00 | 0.00 | 93 | 1016.8 |
| 20260510054541 | 10 | 0 | 0.0 | 0.0 | 0.00 | 0.00 | 0.00 | 93 | 1016.8 |
| 20260510054023 | 10 | 0 | 0.0 | 1.6 | 0.00 | 0.00 | 0.00 | 93 | 1016.8 |
| 20260510053522 | 10 | 0 | 0.0 | 1.6 | 0.00 | 0.00 | 0.00 | 93 | 1016.7 |
| 20260510053042 | 10 | 0 | 0.0 | 1.6 | 0.00 | 0.00 | 0.00 | 93 | 1016.7 |
| 20260510052526 | 10 | 17 | 0.0 | 1.6 | 0.00 | 0.00 | 0.00 | 92 | 1016.7 |
| 20260510052025 | 10 | 0 | 0.0 | 0.0 | 0.00 | 0.00 | 0.00 | 91 | 1016.7 |
| 20260510051559 | 10 | 0 | 0.0 | 0.0 | 0.00 | 0.00 | 0.00 | 90 | 1016.6 |
| 20260510051024 | 10 | 0 | 0.0 | 0.0 | 0.00 | 0.00 | 0.00 | 90 | 1016.7 |
| 20260510050522 | 10 | 0 | 0.0 | 0.0 | 0.00 | 0.00 | 0.00 | 88 | 1016.6 |
| 20260510050042 | 10 | 0 | 0.0 | 0.0 | 0.00 | 0.00 | 0.00 | 88 | 1016.6 |
| 20260510045526 | 11 | 0 | 0.0 | 0.0 | 0.00 | 0.00 | 0.00 | 88 | 1016.6 |
| 20260510045025 | 11 | 0 | 0.0 | 0.0 | 0.00 | 0.00 | 0.00 | 88 | 1016.5 |
| 20260510044542 | 11 | 0 | 0.0 | 0.0 | 0.00 | 0.00 | 0.00 | 87 | 1016.5 |
| 20260510044027 | 12 | 0 | 0.0 | 0.0 | 0.00 | 0.00 | 0.00 | 87 | 1016.5 |
| 20260510043525 | 12 | 0 | 0.0 | 0.0 | 0.00 | 0.00 | 0.00 | 86 | 1016.6 |
| 20260510043102 | 12 | 0 | 0.0 | 0.0 | 0.00 | 0.00 | 0.00 | 85 | 1016.5 |
| 20260510042528 | 12 | 0 | 0.0 | 1.6 | 0.00 | 0.00 | 0.00 | 83 | 1016.4 |
| 20260510042027 | 12 | 0 | 0.0 | 1.6 | 0.00 | 0.00 | 0.00 | 84 | 1016.5 |
| 20260510041550 | 13 | 16 | 0.0 | 1.6 | 0.00 | 0.00 | 0.00 | 85 | 1016.4 |
| 20260510041028 | 13 | 0 | 0.0 | 1.6 | 0.00 | 0.00 | 0.00 | 84 | 1016.5 |
| 20260510040528 | 13 | 16 | 0.0 | 1.6 | 0.00 | 0.00 | 0.00 | 84 | 1016.3 |
| 20260510040043 | 13 | 0 | 0.0 | 1.6 | 0.00 | 0.00 | 0.00 | 83 | 1016.3 |
| 20260510035527 | 14 | 0 | 0.0 | 1.6 | 0.00 | 0.00 | 0.00 | 81 | 1016.3 |
| 20260510035029 | 14 | 0 | 0.0 | 1.6 | 0.00 | 0.00 | 0.00 | 80 | 1016.2 |
| 20260510034544 | 14 | 0 | 0.0 | 1.6 | 0.00 | 0.00 | 0.00 | 81 | 1016.3 |
| 20260510034028 | 15 | 0 | 0.0 | 0.0 | 0.00 | 0.00 | 0.00 | 80 | 1016.3 |
| 20260510033526 | 15 | 0 | 0.0 | 0.0 | 0.00 | 0.00 | 0.00 | 80 | 1016.4 |
| 20260510033042 | 15 | 0 | 0.0 | 0.0 | 0.00 | 0.00 | 0.00 | 76 | 1016.3 |
| 20260510032527 | 16 | 0 | 0.0 | 0.0 | 0.00 | 0.00 | 0.00 | 76 | 1016.4 |
| 20260510032026 | 16 | 0 | 0.0 | 0.0 | 0.00 | 0.00 | 0.00 | 76 | 1016.3 |
| 20260510031608 | 16 | 0 | 0.0 | 0.0 | 0.00 | 0.00 | 0.00 | 75 | 1016.2 |
| 20260510031027 | 17 | 0 | 0.0 | 0.0 | 0.00 | 0.00 | 0.00 | 73 | 1016.2 |
| 20260510030531 | 17 | 16 | 0.0 | 0.0 | 0.00 | 0.00 | 0.00 | 72 | 1016.2 |
| 20260510030040 | 17 | 0 | 0.0 | 0.0 | 0.00 | 0.00 | 0.00 | 71 | 1016.2 |
| 20260510025528 | 18 | 0 | 0.0 | 0.0 | 0.00 | 0.00 | 0.00 | 70 | 1016.2 |
| 20260510025030 | 18 | 0 | 0.0 | 0.0 | 0.00 | 0.00 | 0.00 | 68 | 1016.3 |
| 20260510024545 | 18 | 0 | 0.0 | 0.0 | 0.00 | 0.00 | 0.00 | 67 | 1016.1 |
| 20260510024026 | 19 | 0 | 0.0 | 0.0 | 0.00 | 0.00 | 0.00 | 62 | 1016.1 |
| 20260510023527 | 19 | 0 | 0.0 | 0.0 | 0.00 | 0.00 | 0.00 | 62 | 1016.1 |
| 20260510023051 | 20 | 0 | 0.0 | 1.6 | 0.00 | 0.00 | 0.00 | 62 | 1016.2 |
| 20260510022529 | 20 | 0 | 0.0 | 3.2 | 0.00 | 0.00 | 0.00 | 60 | 1016.3 |
| 20260510022028 | 20 | 16 | 0.0 | 3.2 | 0.00 | 0.00 | 0.00 | 57 | 1016.2 |
| 20260510021544 | 20 | 0 | 1.6 | 3.2 | 0.00 | 0.00 | 0.00 | 56 | 1016.3 |
| 20260510021026 | 20 | 40 | 0.0 | 3.2 | 0.00 | 0.00 | 0.00 | 57 | 1016.4 |
| 20260510020526 | 20 | 59 | 1.6 | 6.4 | 0.00 | 0.00 | 0.00 | 56 | 1016.3 |
| 20260510020042 | 20 | 0 | 1.6 | 8.0 | 0.00 | 0.00 | 0.00 | 57 | 1016.4 |
| 20260510015526 | 20 | 52 | 1.6 | 8.0 | 0.00 | 0.00 | 0.00 | 54 | 1016.5 |
| 20260510015026 | 20 | 15 | 3.2 | 8.0 | 0.00 | 0.00 | 0.00 | 56 | 1016.5 |
| 20260510014544 | 21 | 41 | 0.0 | 3.2 | 0.00 | 0.00 | 0.00 | 59 | 1016.6 |
| 20260510014026 | 21 | 35 | 0.0 | 3.2 | 0.00 | 0.00 | 0.00 | 56 | 1016.7 |
| 20260510013527 | 21 | 53 | 0.0 | 4.8 | 0.00 | 0.00 | 0.00 | 58 | 1016.8 |
| 20260510013043 | 21 | 0 | 1.6 | 8.0 | 0.00 | 0.00 | 0.00 | 58 | 1016.7 |
| 20260510012528 | 21 | 22 | 1.6 | 8.0 | 0.00 | 0.00 | 0.00 | 58 | 1016.8 |
| 20260510012027 | 20 | 347 | 3.2 | 6.4 | 0.00 | 0.00 | 0.00 | 57 | 1016.8 |
| 20260510011554 | 20 | 18 | 3.2 | 6.4 | 0.00 | 0.00 | 0.00 | 55 | 1017.0 |
| 20260510011030 | 21 | 322 | 1.6 | 6.4 | 0.00 | 0.00 | 0.00 | 56 | 1017.1 |
| 20260510010526 | 21 | 0 | 0.0 | 4.8 | 0.00 | 0.00 | 0.00 | 59 | 1017.1 |
| 20260510010050 | 21 | 323 | 1.6 | 11.3 | 0.00 | 0.00 | 0.00 | 56 | 1017.2 |
| 20260510005527 | 21 | 103 | 3.2 | 11.3 | 0.00 | 0.00 | 0.00 | 60 | 1017.1 |
| 20260510005026 | 21 | 17 | 0.0 | 8.0 | 0.00 | 0.00 | 0.00 | 60 | 1017.3 |
| 20260510004540 | 21 | 130 | 1.6 | 8.0 | 0.00 | 0.00 | 0.00 | 59 | 1017.3 |
| 20260510004030 | 21 | 92 | 1.6 | 12.9 | 0.00 | 0.00 | 0.00 | 59 | 1017.3 |
| 20260510003529 | 21 | 5 | 4.8 | 12.9 | 0.00 | 0.00 | 0.00 | 59 | 1017.4 |
| 20260510003041 | 21 | 338 | 4.8 | 12.9 | 0.00 | 0.00 | 0.00 | 58 | 1017.4 |
| 20260510002528 | 21 | 59 | 1.6 | 6.4 | 0.00 | 0.00 | 0.00 | 59 | 1017.4 |
| 20260510002029 | 21 | 46 | 3.2 | 12.9 | 0.00 | 0.00 | 0.00 | 60 | 1017.3 |
| 20260510001544 | 21 | 26 | 4.8 | 12.9 | 0.00 | 0.00 | 0.00 | 59 | 1017.5 |
| 20260510001026 | 21 | 78 | 4.8 | 12.9 | 0.00 | 0.00 | 0.00 | 58 | 1017.3 |
| 20260510000526 | 21 | 61 | 4.8 | 11.3 | 0.00 | 0.00 | 0.00 | 59 | 1017.4 |
| 20260510000049 | 21 | 30 | 3.2 | 14.5 | 0.00 | 0.00 | 0.00 | 59 | 1017.6 |
| 20260509235530 | 21 | 341 | 4.8 | 14.5 | 0.00 | 0.00 | 0.00 | 57 | 1017.6 |
| 20260509235027 | 21 | 17 | 6.4 | 14.5 | 0.00 | 0.00 | 0.00 | 57 | 1017.7 |
| 20260509234542 | 21 | 116 | 4.8 | 12.9 | 0.00 | 0.00 | 0.00 | 58 | 1017.6 |
| 20260509234029 | 21 | 110 | 3.2 | 12.9 | 0.00 | 0.00 | 0.00 | 59 | 1017.7 |
| 20260509233526 | 21 | 102 | 3.2 | 9.7 | 0.00 | 0.00 | 0.00 | 57 | 1017.7 |
| 20260509233041 | 21 | 54 | 1.6 | 6.4 | 0.00 | 0.00 | 0.00 | 60 | 1017.9 |
| 20260509232527 | 21 | 122 | 1.6 | 6.4 | 0.00 | 0.00 | 0.00 | 57 | 1017.9 |
| 20260509232028 | 21 | 121 | 3.2 | 11.3 | 0.00 | 0.00 | 0.00 | 60 | 1017.9 |
| 20260509231546 | 21 | 333 | 3.2 | 14.5 | 0.00 | 0.00 | 0.00 | 59 | 1017.9 |
| 20260509231026 | 21 | 327 | 6.4 | 14.5 | 0.00 | 0.00 | 0.00 | 58 | 1018.0 |
| 20260509230526 | 21 | 346 | 6.4 | 14.5 | 0.00 | 0.00 | 0.00 | 57 | 1018.2 |
| 20260509230042 | 21 | 13 | 0.0 | 14.5 | 0.00 | 0.00 | 0.00 | 59 | 1018.3 |
| 20260509225526 | 21 | 15 | 4.8 | 14.5 | 0.00 | 0.00 | 0.00 | 58 | 1018.3 |
| 20260509225024 | 21 | 34 | 4.8 | 14.5 | 0.00 | 0.00 | 0.00 | 57 | 1018.4 |
| 20260509224539 | 21 | 119 | 1.6 | 14.5 | 0.00 | 0.00 | 0.00 | 60 | 1018.4 |